Weather in Kalinovo

Russia / Sverdlovsk Oblast     57°08′00″N   60°09′00″E
temp.,
°C
wind,
m/s
gust,
m/s
humid.,
%
clouds,
%
prec.,
mm/h
press.,
hPa
HPBL,
m
21 april, wed
wed2123:00+1w28740 0.0 1031152
02:000w22800 0.0 103115
05:00−1w11825 0.0 103210
08:00+4wsw11624 0.0 1032168
11:00+9wsw12450 0.0 1032928
14:00+13ssw01352 0.0 10311348
17:00+13s12340 0.0 10311560
20:00+8sse225277 0.0 103220
22 april, thu
thu2223:00+5s276487 0.0 1032131
02:00+4sse247197 0.0 103266
05:00+3sse277381 0.0 1033142
08:00+6s366079 0.0 1032189
11:00+10s4641100 0.0 1032795
14:00+13ssw4733100 0.0 10311775
17:00+10sw3746100 0.0 10321565
20:00+7wsw376416 0.0 1032303
23 april, fri
fri2323:00+4s2277100 0.0 103218
02:00+4ssw1177100 0.0 103210
05:00+5ssw2579100 0.1 1032160
08:00+5wsw3682100 0.4 1032392
11:00+5sse3691100 0.8 1031701
14:00+7ssw2581100 0.3 1031774
17:00+9ssw2369100 0.6 1030916
20:00+7w2278100 0.1 103069
24 april, sat
sat2423:00+4nnw1190100 0.1 103010
02:00+5ne1289100 0.0 102849
05:00+5ene2493100 0.0 1027152
08:00+5e2798100 0.6 1025328
11:00+7se3792100 1.3 1024768
14:00+7se4690100 0.3 1023985
17:00+6se3693100 1.3 1022856
20:00+5e3894100 0.2 1021416
25 april, sun
sun2523:00+5se41079100 0.2 1019387
02:00+4se3982100 0.0 1018628
05:00+3ese41097100 0.6 1017597
08:00+3ese3897100 0.5 1016462
11:00+8se476487 0.6 10141269
14:00+9se4661100 0.0 10131369
17:00+10sse2657100 0.0 10121544
20:00+7se117999 0.2 101226